Cross City, FL

9:09 PM EDT on May 25, 2018 (GMT -0400)
Cross City

Weather History for KCTY - August, 2013

Change the Weather History Date:

Wednesday, August 7, 2013

  Actual Average Record
Temperature  
Mean Temperature 85 °F 82 °F  
Max Temperature 94 °F 91 °F 96 °F (2006)
Min Temperature 75 °F 72 °F 71 °F (1998)
Degree Days  
Heating Degree Days 0 0  
Month to date heating degree days 0 0  
Since 1 June heating degree days 0 0  
Since 1 July heating degree days 0 0  
Cooling Degree Days 20 17  
Month to date cooling degree days 131 119  
Year to date cooling degree days 1634 1553  
Since 1 June cooling degree days 1099 1074  
Growing Degree Days 34 (Base 50)    
Moisture  
Dew Point 75 °F    
Average Humidity 84    
Maximum Humidity 100    
Minimum Humidity 56    
Precipitation  
Precipitation 0.07 in 0.23 in 1.40 in (2012)
Month to date precipitation 0.81 1.65  
Year to date precipitation 43.71 29.57  
Sea Level Pressure  
Sea Level Pressure 29.96 in    
Wind  
Wind Speed 2 mph (East)    
Max Wind Speed 13 mph    
Max Gust Speed 18 mph    
T = Trace of Precipitation, MM = Missing Value Source: NWS Daily Summary

Daily Weather History Graph

Daily Weather History Graph

Search for Another Location

Airport or City:

Astronomy

Aug. 07, 2013 Rise Set
Actual Time 6:55 AM EDT 8:20 PM EDT
Civil Twilight 6:30 AM EDT 8:45 PM EDT
Nautical Twilight 5:59 AM EDT 9:15 PM EDT
Astronomical Twilight 5:28 AM EDT 9:47 PM EDT
Moon 7:35 AM EDT (8/7) 8:37 PM EDT (8/7)
Length of Visible Light 14h 15m
Length of Day
13h 24m
New Moon, 1% of the Moon is Illuminated
Aug 7
New Moon
Aug 14
First Quarter
Aug 20
Full
Aug 28
Last Quarter
Sep 5
New

Hourly Weather History & Observations

Time (EDT) Temp. Heat Index Dew Point Humidity Pressure Visibility Wind Dir Wind Speed Gust Speed Precip Events Conditions
12:53 AM 77.0 °F - 75.0 °F 94% 29.97 in - Calm Calm - 0.01 in   Unknown
1:53 AM 75.9 °F - 75.0 °F 97% 29.95 in - Calm Calm - 0.01 in   Unknown
2:53 AM 75.9 °F - 75.0 °F 97% 29.94 in - Calm Calm - N/A   Unknown
3:53 AM 75.9 °F - 75.0 °F 97% 29.94 in - Calm Calm - N/A   Unknown
4:53 AM 78.1 °F - 73.9 °F 87% 29.94 in - East 3.5 mph - N/A   Unknown
5:53 AM 75.0 °F - 73.9 °F 96% 29.95 in - Calm Calm - N/A   Unknown
6:53 AM 75.9 °F - 73.9 °F 94% 29.96 in - Calm Calm - N/A   Unknown
7:53 AM 75.9 °F - 75.0 °F 97% 29.97 in - Calm Calm - 0.01 in   Unknown
8:53 AM 79.0 °F - 77.0 °F 94% 29.99 in - ESE 4.6 mph - N/A   Unknown
9:53 AM 82.9 °F 92.8 °F 78.1 °F 85% 30.00 in - Variable 4.6 mph - N/A   Unknown
10:53 AM 84.9 °F 94.1 °F 75.9 °F 74% 29.99 in - East 5.8 mph - N/A   Unknown
11:53 AM 89.1 °F 100.2 °F 75.9 °F 65% 29.99 in - Variable 5.8 mph - N/A   Unknown
12:53 PM 91.0 °F 101.6 °F 75.0 °F 59% 29.99 in - East 5.8 mph - N/A   Unknown
1:53 PM 91.9 °F 101.3 °F 73.9 °F 55% 29.98 in - Calm Calm - N/A   Unknown
2:53 PM 91.9 °F 101.3 °F 73.9 °F 55% 29.95 in - Variable 3.5 mph - N/A   Unknown
3:53 PM 91.9 °F 101.3 °F 73.9 °F 55% 29.93 in - Calm Calm - N/A   Unknown
4:53 PM 79.0 °F - 73.9 °F 84% 29.95 in - NE 10.4 mph 17.3 mph 0.01 in   Unknown
5:53 PM 79.0 °F - 75.0 °F 88% 29.95 in - NE 3.5 mph - 0.01 in   Unknown
6:53 PM 80.1 °F 85.4 °F 75.9 °F 87% 29.94 in - Calm Calm - N/A   Unknown
7:53 PM 80.1 °F 85.8 °F 77.0 °F 90% 29.95 in - Calm Calm - N/A   Unknown
8:53 PM 79.0 °F - 75.9 °F 90% 29.96 in - Calm Calm - 0.01 in   Unknown
9:53 PM 79.0 °F - 77.0 °F 94% 29.97 in - Calm Calm - 0.01 in   Unknown
10:53 PM 78.1 °F - 75.9 °F 93% 30.00 in - Calm Calm - N/A   Unknown
11:53 PM 78.1 °F - 75.9 °F 93% 29.99 in - Calm Calm - N/A   Unknown